Stove Prairie

Current Conditions

Time: 04/24/2019 06:15 PM MST
Location: 40° 37' 9' N, 105° 21' 25' W
Elevation: 7,349 FT

Air Temperature: 60°F
Surface Temperature: 64°F
Dew Point Temperature: 26°F
Relative Humidity: 26%
Visibility: 6,562 FT
Pressure: 773 MB
Precipitation: None

Click a photo to enlarge.

309°4 mph
Wind from @ 4 mph

Past 24 Hours

Previous 24h observations for Stove Prairie
Time Surface
(°F)
Air Temp
(°F)
Dew Point
(°F)
Relative
Humidity
Precip. Wind Direction Wind Speed (mph) Visibility (ft) Pressure
(mb)
06:15 PM64602626NoneNW46,562773
06:00 PM64612626NoneNW46,562773
05:45 PM67622626NoneNNW46,562773
05:30 PM68622625NoneWNW46,562774
05:15 PM68612626NoneNNW46,562774
05:00 PM69602728NoneNW46,562774
04:45 PM72602728NoneNW36,562774
04:30 PM71602930NoneNNE66,562774
04:15 PM75603032NoneNE36,562774
04:00 PM73592932NoneNE36,562774
03:45 PM73592932NoneNE36,562774
03:30 PM76582932NoneNNE46,562774
03:15 PM77592831NoneN66,562774
03:00 PM83592932NoneN66,562774
02:45 PM77592932NoneN56,562774
02:30 PM80592933NoneNNE56,562774
02:15 PM86593135NoneNNE36,562775
02:00 PM83583036NoneN36,562775
01:45 PM74563139NoneN26,562775
01:30 PM65563240NoneSSW26,562775
01:15 PM65553140NoneWNW26,562775
01:00 PM64563241NoneW26,562775
12:45 PM70553343NoneSSE56,562775
12:30 PM62553241NoneS16,562775
12:15 PM62553141Light RainNNE36,562775
12:00 PM65553039NoneNNW56,562775
11:45 AM69563037NoneNNE56,562775
11:30 AM67553139NoneNNE56,562776
11:15 AM65552938NoneNE56,562776
11:00 AM63553039NoneN66,562776
10:45 AM62543039NoneNNW66,562776
10:30 AM60543039NoneNNW66,562776
10:15 AM60543142NoneNNW66,562776
10:00 AM58533346NoneNNW36,562776
09:45 AM55513248NoneNNW56,562776
09:30 AM52493252NoneN46,562776
09:15 AM50473358NoneN36,562776
09:00 AM48463258NoneN46,562776
08:45 AM46453158NoneN36,562776
08:30 AM46453157NoneN46,562776
08:15 AM44453157NoneNNW36,562776
08:00 AM45453054NoneNNW26,562776
07:45 AM44442751NoneN26,562776
07:30 AM42443057NoneNNW36,562776
07:15 AM41442750NoneNNW26,562775
07:00 AM44452851NoneNNE26,562775
06:45 AM42432650NoneNNW26,562775
06:30 AM41422653NoneN36,562775
06:15 AM40412656NoneNNW36,562775
06:00 AM39412655NoneN36,562775
05:45 AM40412656NoneNNE46,562775
05:30 AM41402657NoneN46,562775
05:15 AM40402658NoneN56,562775
05:00 AM38392661NoneN36,562775
04:45 AM38392661NoneN56,562775
04:30 AM38382662NoneN46,562775
04:15 AM39392659NoneN56,562775
04:00 AM39412757NoneN36,562775
03:45 AM40402759NoneN36,562775
03:30 AM40402759NoneNNW36,562775
03:15 AM39402760NoneN36,562775
03:00 AM39412757NoneNNW26,562775
02:45 AM41412858NoneNNW26,562775
02:30 AM40402860NoneNNW36,562775
02:15 AM40422857NoneNNW36,562775
02:00 AM42422857NoneNNW26,562775
01:45 AM42422858NoneN16,562776
01:30 AM40422858NoneN26,562776
01:15 AM41422859NoneNNW16,562776
01:00 AM41432856NoneN06,562776
12:45 AM46442853NoneESE26,562776
12:30 AM46442854NoneN06,562776
12:15 AM46442852NoneENE26,562776
12:00 AM45452852NoneN06,562776
11:45 PM47452851NoneE26,562776
11:30 PM46452953NoneNE16,562776
11:15 PM45452954NoneNE26,562776
11:00 PM46453056NoneNNE26,562776
10:45 PM47453156NoneENE26,562776
10:30 PM48463156NoneNE26,562776
10:15 PM49463258NoneNNE26,562776
10:00 PM50453363NoneN26,562776
09:45 PM46423369NoneN16,562776
09:30 PM48433367NoneN06,562776
09:15 PM48433368NoneNE16,562776
09:00 PM48443367NoneN06,562776
08:45 PM49453365NoneNNE16,562775
08:30 PM49453465NoneN06,562775
08:15 PM50463463NoneNNE16,562775
08:00 PM49473460NoneNNW16,562775
07:45 PM51483458NoneN16,562775
07:30 PM52493455NoneS36,562775
07:15 PM52503352NoneSSW36,562775
07:00 PM53513452NoneS36,562775
06:45 PM55523552NoneS36,562775
06:30 PM54533552NoneSW16,562775

Red Feather Lakes

Current Conditions

Time: 04/24/2019 06:15 PM MST
Location: 40° 47' 25' N, 105° 34' 27' W
Elevation: 8,238 FT

Air Temperature: 56°F
Surface Temperature: 78°F
Dew Point Temperature: 25°F
Relative Humidity: 31%
Visibility: 6,562 FT
Pressure: 749 MB

Click a photo to enlarge.

259°11 mph
Wind from @ 11 mph

Past 24 Hours

Previous 24h observations for Red Feather Lakes
Time Surface
(°F)
Air Temp
(°F)
Dew Point
(°F)
Relative
Humidity
Precip. Wind Direction Wind Speed (mph) Visibility (ft) Pressure
(mb)
06:15 PM78562531W116,562749
06:00 PM78562530NW116,562749
05:45 PM82562529NW96,562749
05:30 PM83562529NoneNNW146,562749
05:15 PM82562632NoneW146,562749
05:00 PM85562632WNW136,562749
04:45 PM87562631WNW136,562749
04:30 PM89572833WNW186,562749
04:15 PM85562630NNW126,562749
04:00 PM87562733NoneW166,562749
03:45 PM89562732NoneNW166,562749
03:30 PM79552633NoneWNW136,562749
03:15 PM86562733NoneW166,562749
03:00 PM78552734NoneNW116,562750
02:45 PM81552735NoneNW126,562750
02:30 PM75542736NoneWNW116,562750
02:15 PM74532735NoneWNW186,562750
02:00 PM86552835NoneWNW116,562750
01:45 PM75532432NoneNW126,562750
01:30 PM74532534NoneNW106,562750
01:15 PM76532634NoneWNW136,562750
01:00 PM76532635NoneNW116,562750
12:45 PM68522636NoneNNW96,562750
12:30 PM68522840NoneESE26,562750
12:15 PM72512942NoneESE66,562750
12:00 PM64502943NoneENE76,562750
11:45 AM65502944NoneE66,562750
11:30 AM76512943NoneWSW66,562750
11:15 AM64512943NoneWNW56,562751
11:00 AM66512842NoneW26,562751
10:45 AM64502944NoneNW66,562751
10:30 AM64502844NoneNE36,562751
10:15 AM62492844NoneNW66,562751
10:00 AM55492844NoneWNW66,562751
09:45 AM54482847NoneNW46,562751
09:30 AM53472846NoneWNW66,562751
09:15 AM51472847NoneWNW76,562751
09:00 AM50472846NoneNW76,562751
08:45 AM49472848NoneNW76,562751
08:30 AM48462848NoneNW106,562751
08:15 AM47462848NoneNNW96,562751
08:00 AM47462849NoneNW66,562751
07:45 AM46462849NoneNW76,562751
07:30 AM45452850NoneNNW66,562750
07:15 AM44452851NoneNW66,562750
07:00 AM45452850NoneNW86,562750
06:45 AM43442853NoneNW76,562750
06:30 AM42422754NoneW76,562750
06:15 AM41432754NoneWNW66,562750
06:00 AM41432754NoneWNW56,562750
05:45 AM40432754NoneNW36,562750
05:30 AM41442751NoneWNW46,562750
05:15 AM40432651NoneWNW66,562750
05:00 AM39432650NoneW96,562750
04:45 AM40432549NoneWNW96,562750
04:30 AM39432549NoneWNW76,562750
04:15 AM39432548NoneW106,562750
04:00 AM39422549NoneW96,562750
03:45 AM39422550NoneW106,562750
03:30 AM40422550NoneWNW106,562750
03:15 AM40422450NoneWNW96,562750
03:00 AM44422449NoneWNW86,562750
02:45 AM42362360NoneWNW56,562750
02:30 AM43332366NoneW66,562750
02:15 AM42302477NoneW76,562750
02:00 AM42322473NoneW66,562750
01:45 AM43312475NoneW56,562750
01:30 AM44322574NoneW66,562750
01:15 AM44332573NoneW56,562750
01:00 AM44332571NoneW66,562751
12:45 AM44342569NoneW66,562751
12:30 AM45352568NoneW86,562751
12:15 AM45372664NoneW66,562751
12:00 AM45342569NoneW96,562751
11:45 PM46372664NoneW86,562751
11:30 PM47392660NoneW86,562751
11:15 PM45402657NoneW96,562751
11:00 PM48432652NoneWNW66,562751
10:45 PM49432652NoneWNW66,562751
10:30 PM50432652NoneWNW76,562751
10:15 PM52432650NoneWNW76,562751
10:00 PM53442649NoneNW66,562751
09:45 PM55452648NoneNW76,562751
09:30 PM56452648NoneNW66,562751
09:15 PM57452750NoneNNW56,562751
09:00 PM58452750NoneNNW56,562751
08:45 PM58452749NoneNW56,562751
08:30 PM60462748NoneNW36,562750
08:15 PM60472847NoneNW36,562750
08:00 PM63482845NoneNNW26,562750
07:45 PM64492945NoneNNE26,562750
07:30 PM66502843NoneNE46,562750
07:15 PM68513146NoneENE56,562750
07:00 PM71513349NoneE56,562750
06:45 PM74513248NoneESE46,562750
06:30 PM75513248NoneE86,562750

Pinewood Reservoir

Current Conditions

Time: 04/24/2019 06:15 PM MST
Location: 40.3647° N, 105.2867° W
Elevation: 6,580 FT

Air Temperature: 60°F
Surface Temperature: 73°F
Dew Point Temperature: 35°F
Relative Humidity: 38%
Visibility: 6,562 FT
Pressure: 789 MB
Precipitation: None

Click a photo to enlarge.

183°4 mph
Wind from @ 4 mph

Past 24 Hours

Previous 24h observations for Pinewood Reservoir
Time Surface
(°F)
Air Temp
(°F)
Dew Point
(°F)
Relative
Humidity
Precip. Wind Direction Wind Speed (mph) Visibility (ft) Pressure
(mb)
06:15 PM73603538NoneS46,562789
06:00 PM74603438NoneS66,562789
05:45 PM71593540NoneE36,562790
05:30 PM74593338NoneNE46,562790
05:15 PM75593438NoneSE56,562790
05:00 PM78603438NoneS36,562790
04:45 PM77593438NoneESE46,562790
04:30 PM80593438NoneE56,562790
04:15 PM82603337NoneESE66,562790
04:00 PM84603336NoneSSE76,562790
03:45 PM85603336NoneE66,562790
03:30 PM93603437NoneE46,562790
03:15 PM87603439NoneNNW26,562790
03:00 PM96593337NoneNE96,562790
02:45 PM87583441NoneNE86,562790
02:30 PM83583137NoneENE46,562791
02:15 PM93593237NoneNE46,562791
02:00 PM92583643NoneESE46,562791
01:45 PM86573544NoneE46,562791
01:30 PM82563544NoneSE46,562791
01:15 PM74553649NoneESE66,562791
01:00 PM71533857NoneENE86,562791
12:45 PM64513757Light RainNNE106,562791
12:30 PM69553547NoneN126,562791
12:15 PM78563239Light RainNE66,562791
12:00 PM93593338NoneESE46,562791
11:45 AM88583339NoneNE26,562791
11:30 AM74573239NoneNE56,562792
11:15 AM71563138NoneENE46,562792
11:00 AM73563239NoneNE76,562792
10:45 AM72563239NoneNE86,562792
10:30 AM70563139NoneENE76,562792
10:15 AM66563342NoneNE56,562792
10:00 AM62553344NoneE36,562792
09:45 AM61553344NoneNE26,562792
09:30 AM59543345NoneENE26,562792
09:15 AM58543243NoneN06,562792
09:00 AM55533347NoneWSW26,562792
08:45 AM54532940NoneW36,562792
08:30 AM54532940NoneW46,562792
08:15 AM52522941NoneW36,562792
08:00 AM51522839NoneWSW46,562792
07:45 AM51522840NoneW46,562791
07:30 AM50512841NoneW66,562792
07:15 AM49512840NoneW56,562791
07:00 AM49502741NoneW66,562791
06:45 AM48492741NoneWSW56,562791
06:30 AM47482642NoneW46,562791
06:15 AM44472645NoneWSW46,562791
06:00 AM45472644NoneWSW56,562791
05:45 AM45472644NoneWSW56,562791
05:30 AM44472644NoneSW56,562791
05:15 AM45472643NoneWSW66,562791
05:00 AM45482641NoneW56,562791
04:45 AM45482641NoneS36,562791
04:30 AM46482541NoneSSW26,562791
04:15 AM46472642NoneSSW26,562791
04:00 AM46462645NoneSW36,562791
03:45 AM46472745NoneSW46,562791
03:30 AM46462748NoneSW56,562791
03:15 AM46472847NoneWSW56,562791
03:00 AM47462850NoneSW46,562791
02:45 AM47462952NoneSW46,562791
02:30 AM46472950NoneWSW56,562791
02:15 AM47472950NoneWSW66,562791
02:00 AM47472950NoneSSW56,562791
01:45 AM48482949NoneW66,562792
01:30 AM48482949NoneW46,562792
01:15 AM49502945NoneW46,562792
01:00 AM51502944NoneWNW46,562792
12:45 AM50502945NoneWNW56,562792
12:30 AM51492946NoneW46,562792
12:15 AM49493047NoneSW46,562792
12:00 AM50492946NoneSW86,562792
11:45 PM51503046NoneSW66,562792
11:30 PM51503147NoneSSW56,562792
11:15 PM53503148NoneSSW46,562791
11:00 PM54513147NoneWSW46,562792
10:45 PM54493352NoneSW46,562792
10:30 PM55493354NoneSW36,562791
10:15 PM53473153NoneSW46,562792
10:00 PM54463257NoneWSW56,562791
09:45 PM54453466NoneWSW46,562792
09:30 PM55453465NoneSW46,562791
09:15 PM56473358NoneWSW56,562791
09:00 PM57463361NoneSW46,562791
08:45 PM57483559NoneSW46,562791
08:30 PM58473561NoneSSW46,562791
08:15 PM61513247NoneW46,562791
08:00 PM62523146NoneW46,562791
07:45 PM63523246NoneW36,562791
07:30 PM64543345NoneNW26,562791
07:15 PM66543242NoneS56,562791
07:00 PM68553243NoneESE46,562791
06:45 PM71553241NoneESE66,562791
06:30 PM73553241NoneSSE36,562791

Masonville

Current Conditions

Time: 04/24/2019 06:00 PM MST
Location: 40.4875° N, 105.2108° W
Elevation: 5,387 FT

Air Temperature: 67°F
Surface Temperature: 84°F
Dew Point Temperature: 36°F
Relative Humidity: 32%
Visibility: 6,562 FT
Pressure: 829 MB
Precipitation: None

Click a photo to enlarge.

181°4 mph
Wind from @ 4 mph

Past 24 Hours

Previous 24h observations for Masonville
Time Surface
(°F)
Air Temp
(°F)
Dew Point
(°F)
Relative
Humidity
Precip. Wind Direction Wind Speed (mph) Visibility (ft) Pressure
(mb)
06:00 PM84673632NoneS46,562829
05:45 PM88673834NoneSSW46,562830
05:30 PM87673631NoneS96,562830
05:15 PM93673732NoneS76,562830
05:00 PM93683732NoneS86,562830
04:45 PM90673732NoneS66,562830
04:30 PM90673732NoneS66,562830
04:15 PM99683528NoneS56,562830
04:00 PM99673328NoneENE36,562830
03:45 PM103673530NoneE26,562830
03:30 PM94663531NoneS46,562830
03:15 PM100673733NoneSSW66,562830
03:00 PM107663632NoneSW26,562831
02:45 PM107663633NoneSSW96,562831
02:30 PM108673632NoneSSW86,562831
02:15 PM104663532NoneS86,562831
02:00 PM103663835NoneSSE96,562831
01:45 PM93653633NoneSSE66,562831
01:30 PM98663735NoneSE46,562831
01:15 PM87643534NoneWSW46,562831
01:00 PM82633636NoneSSW66,562832
12:45 PM83643635NoneSSW116,562832
12:30 PM90663329NoneS36,562832
12:15 PM96663330NoneSSW36,562832
12:00 PM100673532NoneENE56,562832
11:45 AM95653533NoneESE56,562832
11:30 AM98653633NoneSSE46,562832
11:15 AM91653635NoneSSE86,562832
11:00 AM88643636NoneESE46,562832
10:45 AM86633638NoneSSE46,562832
10:30 AM77603640NoneS26,562832
10:15 AM74593744NoneS26,562832
10:00 AM67583744NoneN06,562832
09:45 AM65563749NoneN06,562833
09:30 AM63553650NoneS26,562833
09:15 AM61543650NoneSSE26,562833
09:00 AM59533651NoneN06,562833
08:45 AM58543549NoneSSE36,562833
08:30 AM57543549NoneSSW26,562832
08:15 AM57563342NoneNW56,562832
08:00 AM56563240NoneNW86,562832
07:45 AM56563239NoneWNW116,562832
07:30 AM55563139NoneWNW86,562832
07:15 AM55553140NoneN86,562832
07:00 AM54553140NoneNNE66,562832
06:45 AM53543142NoneN46,562832
06:30 AM53533142NoneN56,562832
06:15 AM52523143NoneNNW46,562832
06:00 AM52503047NoneNNW56,562832
05:45 AM51483048NoneN06,562832
05:30 AM50493048NoneN06,562832
05:15 AM51482948NoneENE26,562832
05:00 AM50492946NoneNNW36,562832
04:45 AM50492946NoneNNW46,562832
04:30 AM50492945NoneNNW46,562832
04:15 AM51492946NoneNNW46,562832
04:00 AM51492946NoneN46,562832
03:45 AM51483048NoneN36,562832
03:30 AM52493048NoneNNW46,562832
03:15 AM51493149NoneNNW66,562832
03:00 AM52493150NoneNNW66,562832
02:45 AM53503147NoneNW86,562832
02:30 AM52493250NoneNNW46,562832
02:15 AM53493250NoneNNW46,562832
02:00 AM53503249NoneNNW66,562832
01:45 AM53513147NoneNNW96,562832
01:30 AM54523247NoneNNW116,562832
01:15 AM54523247NoneNNW86,562832
01:00 AM54533245NoneNNW86,562833
12:45 AM56543244NoneNNW76,562833
12:30 AM56543244NoneNNW76,562833
12:15 AM56533345NoneNNW66,562833
12:00 AM57533346NoneNNW36,562832
11:45 PM59533346NoneNNW56,562832
11:30 PM57543547NoneN46,562832
11:15 PM59523654NoneN36,562832
11:00 PM59503659NoneNNE56,562832
10:45 PM59513758NoneN36,562832
10:30 PM59513759NoneNNW46,562832
10:15 PM60513760NoneNNW46,562832
10:00 PM60513860NoneNNW66,562832
09:45 PM61523858NoneNNW86,562832
09:30 PM62523859NoneNNW66,562832
09:15 PM62523859NoneNNW66,562832
09:00 PM63523757NoneNNW56,562832
08:45 PM64533855NoneNNW56,562832
08:30 PM65553854NoneNNW36,562832
08:15 PM66573849NoneNW46,562832
08:00 PM68573848NoneNW46,562832
07:45 PM71583846NoneN06,562832
07:30 PM72593844NoneSSE26,562832
07:15 PM74603741NoneSSE26,562832
07:00 PM75613639NoneSSE46,562832
06:45 PM78623537NoneSSE56,562832
06:30 PM81623638NoneSSE66,562832

Time to refresh Minute(s) Second(s)